Location: Wishram
(45.6596°N, 120.9636°W)
Time: 16:29:02
(UTC+00:00)

BlueWalker 3 - Visible Passes

Search period start: 15 May 2026 00:00
Search period end: 25 May 2026 00:00
Orbit: 447 x 458 km, 53.2° (Epoch: 15 May)

Date Brightness Start Highest point End Pass type
(mag) Time Alt. Az. Time Alt. Az. Time Alt. Az.
15 May 2.7 09:02:56 46° N 09:02:56 46° N 09:06:04 10° NE visible
15 May 3.9 10:37:39 10° WNW 10:40:35 24° N 10:43:32 10° NE visible
16 May 3.1 08:26:58 36° NE 08:26:58 36° NE 08:29:17 10° NE visible
16 May 3.9 10:00:42 10° WNW 10:03:40 25° N 10:06:40 10° NE visible
16 May 3.8 11:38:42 10° NW 11:41:50 28° NNE 11:44:57 10° ENE visible
17 May 3.6 07:50:54 25° NE 07:50:54 25° NE 07:52:30 10° NE visible
17 May 3.8 09:24:29 14° WNW 09:26:46 26° N 09:29:49 10° NE visible
17 May 3.9 11:01:52 10° NW 11:04:55 26° N 11:07:58 10° ENE visible
18 May 4.0 07:14:40 18° ENE 07:14:40 18° ENE 07:15:42 10° ENE visible
18 May 3.7 08:48:14 20° WNW 08:49:51 28° NNW 08:52:59 10° NE visible
18 May 4.1 10:25:01 10° NW 10:28:00 24° N 10:30:59 10° ENE visible
19 May 4.0 06:38:08 15° ENE 06:38:08 15° ENE 06:38:51 10° ENE visible
19 May 3.5 08:11:40 24° WNW 08:12:57 31° NNW 08:16:10 10° NE visible
19 May 4.1 09:48:08 10° NW 09:51:05 24° N 09:54:01 10° ENE visible
19 May 2.8 11:25:37 10° NW 11:29:04 47° NNE 11:32:30 10° E visible
20 May 3.6 06:00:49 19° ENE 06:00:49 19° ENE 06:02:00 10° ENE visible
20 May 3.2 07:34:15 21° WNW 07:36:03 36° NNW 07:39:22 10° NE visible
20 May 4.2 09:11:13 10° NW 09:14:07 23° N 09:17:03 10° NE visible
20 May 3.2 10:48:49 10° NW 10:52:11 39° NNE 10:55:33 10° E visible
21 May 2.1 05:18:29 10° SSW 05:21:47 37° SE 05:25:05 10° ENE visible
21 May 2.9 06:55:45 10° W 06:59:09 42° NNW 07:02:33 10° NE visible
21 May 4.2 08:34:15 10° WNW 08:37:11 23° N 08:40:06 10° NE visible
21 May 3.5 10:12:00 10° NW 10:15:17 34° NNE 10:18:33 10° E visible
21 May 1.8 11:49:20 10° WNW 11:52:50 55° SW 11:56:17 10° SE visible
22 May 2.5 04:41:55 10° SSW 04:45:01 28° SE 04:48:06 10° ENE visible
22 May 2.6 06:18:48 10° WSW 06:22:16 50° NNW 06:25:44 10° NE visible
22 May 4.1 07:57:16 10° WNW 08:00:14 24° N 08:03:11 10° NE visible
22 May 3.7 09:35:10 10° NW 09:38:22 30° NNE 09:41:32 10° E visible
22 May 1.6 11:12:28 10° WNW 11:16:01 74° SSW 11:19:32 10° SE visible
23 May 2.2 05:41:53 10° WSW 05:45:23 63° NNW 05:48:54 10° NE visible
23 May 4.1 07:20:16 10° WNW 07:23:16 25° N 07:26:16 10° NE visible
23 May 3.9 08:58:19 10° NW 09:01:26 27° NNE 09:04:32 10° ENE visible
23 May 1.7 10:35:37 10° WNW 10:39:10 86° NNE 10:42:43 10° ESE visible
24 May 1.8 05:04:58 10° WSW 05:08:32 79° NNW 05:12:05 10° ENE visible
24 May 4.0 06:43:14 10° WNW 06:46:19 27° NNW 06:49:23 10° NE visible
24 May 4.0 08:21:26 10° NW 08:24:27 25° N 08:27:29 10° ENE visible
24 May 2.0 09:58:46 10° NW 10:02:19 68° NNE 10:05:50 10° ESE visible
24 May 3.0 11:36:46 10° W 11:39:23 20° SW 11:42:00 10° S visible
